Location: New Canada
(47.1017°N, 68.5042°W)
Time: 04:09:25
(UTC+00:00)

COSMOS 1818 DEB - Pass Details

Date: 04 December 2023
Orbit: 754 x 785 km, 65.0° (Epoch: 12 November)

Event Time Altitude Azimuth Distance (km) Brightness Sun altitude
Rises 23:01:43 0° 298° (WNW) 3,272 ? -22.4°
Reaches altitude 10° 23:05:54 10° 329° (NNW) 2,348 ? -23.1°
Maximum altitude 23:07:54 12° 351° (N) 2,214 ? -23.4°
Enters shadow 23:09:17 11° 7° (N) 2,280 ? -23.6°
